Location: Vancouver
(49.2500°N, 123.1330°W)
Time: 02:48:10
(UTC-07:00)

Cosmos 676 Rocket - Visible Passes

Search period start: 27 May 2015 00:00
Search period end: 06 June 2015 00:00
Orbit: 754 x 786 km, 74.0° (Epoch: 25 May)

Date Brightness Start Highest point End Pass type
(mag) Time Alt. Az. Time Alt. Az. Time Alt. Az.
28 May 6.7 04:17:29 10° N 04:21:52 25° NE 04:26:17 10° ESE visible
28 May 7.8 22:27:41 10° WNW 22:29:42 12° NW 22:31:32 10° NNW visible
29 May 7.1 03:41:28 10° N 03:45:02 18° NE 03:48:42 10° E visible
29 May 7.4 21:49:20 10° W 21:52:44 16° NW 21:56:00 10° N visible
30 May 7.3 03:05:44 10° NNE 03:08:05 13° NE 03:10:36 10° ENE visible
31 May 5.8 04:10:01 10° N 04:14:56 37° NE 04:19:51 10° SE visible
01 Jun 6.5 03:33:49 10° N 03:38:13 26° NE 03:42:39 10° ESE visible
02 Jun 6.9 02:57:48 10° N 03:01:23 18° NE 03:05:05 10° E visible
03 Jun 7.1 02:22:03 10° NNE 02:24:27 13° NE 02:27:01 10° ENE visible
03 Jun 4.8 04:02:38 10° NNW 04:07:54 57° ENE 04:13:05 10° SE visible
04 Jun 5.6 03:26:21 10° NNW 03:31:17 38° NE 03:36:12 10° SE visible
05 Jun 6.3 02:50:10 10° N 02:54:34 26° NE 02:59:01 10° ESE visible
